Flag for Norway Weather past 2 weeks in Stavern, Norway

Now
43 °F

Light rain. Fog.


Feels Like: 37 °F
Forecast: 53 / 56 °F
Wind: 9 mph from Southeast

Location: Torp

Current Time: Oct 23, 2014 at 7:16:41 AM

Latest Report: Oct 23, 2014 at 6:50 AM


Visibility: 3 mi

Pressure: 30.01 "Hg

Humidity: 100%

Dew point: 43 °F

Location of StavernLocation

Historic Weather in Stavern — Graph

°F

Stavern temperature yesterday

Maximum temperature yesterday: 50 °F (at 1:50 AM)
Minimum temperature yesterday: 41 °F (at 6:50 PM)
Average temperature yesterday: 45 °F

Past Weeks' High & Low Weather Summary

 TemperatureHumidityPressure
High59 °F (Oct 20, 1:20 PM)100% (Oct 9, 5:50 AM)30.09 "Hg (Oct 9, 5:50 AM)
Low32 °F (Oct 16, 8:50 PM)59% (Oct 8, 4:20 PM)29.30 "Hg (Oct 20, 3:50 AM)
Average47 °F92%29.74 "Hg
* Reported Oct 8 5:20 AM — Oct 23 5:50 AM, Stavern, Weather by CustomWeather, © 2014

Note: Actual official high and low records may vary slightly from our data, if they occured in-between our weather recording intervals... More about our weather records

Advertising

Stavern weather history for previous 24 hours

 ConditionsComfort  
Time TempWeatherWind HumidityBarometerVisibility
5:50 AM
Oct 23
43 °FDrizzle. Low clouds.7 mph100%30.01 "Hg2 mi
5:20 AM43 °FDrizzle. Low clouds.7 mph100%30.04 "Hg2 mi
4:50 AM43 °FLight rain. Dense fog.6 mph100%30.01 "Hg2 mi
4:20 AM43 °FDrizzle. Mostly cloudy.7 mph100%30.04 "Hg3 mi
3:50 AM43 °FFog.6 mph100%30.04 "Hg2 mi
3:20 AM43 °FFog.6 mph100%30.04 "Hg2 mi
2:50 AM43 °FMostly cloudy.6 mph100%30.04 "Hg4 mi
2:20 AM43 °FFog.6 mph100%30.04 "Hg2 mi
1:50 AM43 °FDrizzle. Fog.7 mph100%30.04 "Hg2 mi
1:20 AM43 °FDrizzle. Dense fog.6 mph100%30.07 "Hg2 mi
12:50 AM43 °FDrizzle. Fog.5 mph93%30.07 "Hg2 mi
12:20 AM41 °FDrizzle. Fog.5 mph100%30.07 "Hg2 mi
11:50 PM
Oct 22
41 °FDrizzle. Dense fog.6 mph100%30.04 "Hg2 mi
11:20 PM41 °FPassing clouds.6 mph100%30.07 "Hg2 mi
10:50 PM41 °FDrizzle. Low clouds.7 mph100%30.04 "Hg2 mi
10:20 PM41 °FDrizzle. Fog.7 mph100%30.04 "Hg2 mi
9:50 PM41 °FLight rain. Mostly cloudy.7 mph100%30.04 "Hg2 mi
9:20 PM41 °FDrizzle. Fog.6 mph100%30.04 "Hg2 mi
8:50 PM41 °FDrizzle. Fog.7 mph100%30.04 "Hg2 mi
8:25 PM41 °FDrizzle. Low clouds.7 mph100%30.01 "Hg2 mi
7:50 PM41 °FDrizzle. Low clouds.7 mph100%30.01 "Hg3 mi
7:20 PM41 °FDrizzle. Fog.7 mph100%30.01 "Hg2 mi
6:50 PM41 °FDrizzle. Fog.8 mph100%30.01 "Hg2 mi
6:20 PM43 °FDrizzle. Fog.7 mph93%29.98 "Hg2 mi
5:50 PM43 °FDrizzle. Fog.7 mph100%29.98 "Hg2 mi
5:20 PM43 °FDrizzle. Fog.7 mph100%29.98 "Hg2 mi
4:50 PM43 °FDrizzle. Fog.7 mph100%29.98 "Hg3 mi
4:20 PM43 °FDrizzle. Fog.7 mph100%29.95 "Hg2 mi
3:50 PM45 °FDrizzle. Fog.7 mph93%29.95 "Hg2 mi
3:20 PM45 °FDrizzle. Fog.7 mph93%29.95 "Hg2 mi
2:50 PM45 °FDrizzle. Fog.5 mph93%29.92 "Hg2 mi
2:20 PM45 °FLight rain. Fog.5 mph93%29.92 "Hg3 mi
1:50 PM45 °FDrizzle. Overcast.5 mph93%29.92 "Hg3 mi
1:20 PM46 °FDrizzle. Overcast.7 mph87%29.89 "Hg4 mi
12:50 PM45 °FDrizzle. Partly sunny.8 mph93%29.89 "Hg4 mi
12:20 PM46 °FLight rain. Partly sunny.9 mph87%29.89 "HgN/A
11:50 AM46 °FRain. Partly sunny.8 mph87%29.86 "Hg5 mi
11:20 AM46 °FLight rain. Fog.10 mph87%29.86 "Hg3 mi
10:50 AM46 °FDrizzle. Partly sunny.7 mph93%29.83 "Hg3 mi
10:20 AM46 °FRain. Broken clouds.5 mph93%29.80 "Hg4 mi
9:50 AM46 °FRain. Broken clouds.8 mph93%29.80 "Hg5 mi
9:20 AM46 °FLight rain. Broken clouds.8 mph93%29.77 "HgN/A
8:50 AM46 °FLight rain. Passing clouds.8 mph93%29.74 "HgN/A
8:20 AM46 °FPartly cloudy.10 mph93%29.71 "Hg6 mi
7:50 AM48 °FPartly cloudy.8 mph94%29.71 "Hg5 mi
7:20 AM48 °FDrizzle. Mostly cloudy.8 mph94%29.68 "Hg5 mi
Weather by CustomWeather, © 2014

See weather overviewHow to use our weather pages